[[{"header":{"parameterUnit":"m.s-1","parameterCategory":1,"la1":30.2991,"la2":30.254,"lo1":-89.0895,"lo2":-89.0444,"dy":0.0017,"dx":0.0017,"nx":28,"ny":28,"refTime":"2024-04-20T21:00:00:Z","depth":0,"parameterNumber":2,"parameterNumberName":"U-component_of_WINDS"},"data":[0,0,0,0,0,0,0,0,0,0,0,0,0,0,0,0,0,0,0,0,0,0,0,0,0,0,0,0,0,0,0,0,0,0,0,0,0,0,0,0,0,0,0,0,0,0,0,0,0,0,0,0,0,0,0,0,0,0,-0.0113,-0.0111,0,0.0012,0.0013,0.0014,0.0065,0.0064,0.0064,0.0064,0.0191,0.0195,0.0198,0,0,0,0,0,0,0,0,0,0,0,0,0,-0.0307,-0.0303,-0.0113,-0.0111,-0.011,0.0011,0.0013,0.0015,0.0065,0.0064,0.0064,0.0064,0.019,0.0194,0.0199,0,0,0,0,0,0,0,0,0,0,0,0,0,-0.0207,-0.0302,-0.0113,-0.007,-0.0065,0.0011,0.0013,0.0015,0.0065,0.0064,0.0064,0.0063,0.0189,0.0194,0.0199,0.0242,0,0,0.0216,0.0218,0,0,0,0,0,0,0,0,-0.0212,-0.0199,-0.0078,-0.0073,-0.0067,0.0022,-0.0009,0.0091,0.0065,0.0015,0.0064,0.0063,0.0135,0.0145,0.0169,0.0248,0.0253,0.0217,0.022,0.0222,0.0224,0,0,0,0,0,0,0,-0.0219,-0.0205,-0.0063,-0.0076,-0.007,-0.0057,-0.0043,0.001,0.0076,0.002,0.0024,0.0038,0.0138,0.0164,0.0173,0.0255,0.0216,0.0221,0.0225,0.0227,0.0375,0.0375,0,0,0,0,0,0,-0.0233,-0.0211,-0.0067,-0.006,-0.0142,-0.0053,-0.0038,-0.0006,0.0076,0.0088,0.0038,0.004,0.0155,0.0166,0.0177,0.0233,0.0222,0.0227,0.0231,0.0374,0.0375,0.0375,0,0,0,0,0,0,-0.0238,-0.0221,-0.0072,-0.0134,-0.0114,-0.0049,-0.0014,-0.0003,0.0022,0.009,0.0102,0.0052,0.0155,0.017,0.0225,0.0238,0.023,0.0235,0.0373,0.0374,0.0375,0.0343,0,0,0,0,0,0,-0.0243,-0.0223,-0.0206,-0.0134,-0.0111,-0.0027,-0.0013,-0.0001,0.0032,0.0035,0.0106,0.0118,0.0156,0.0217,0.0231,0.0245,0.0239,0.0372,0.0374,0.0375,0.0344,0.0343,0.0343,0,0,0,0,0,-0.0251,-0.022,-0.0205,-0.0188,-0.0089,-0.0026,-0.0013,0.003,0.0033,0.005,0.0093,0.0115,0.0234,0.0222,0.0238,0.0254,0.0372,0.0373,0.0375,0.0344,0.0343,0.0343,0,0,0,0,0,0,-0.0292,-0.0209,-0.0193,-0.0138,-0.0089,-0.0018,0.0006,0.0028,0.0077,0.0078,0.013,0.0145,0.0197,0.0231,0.0217,0.03,0.0305,0.0309,0.0276,0.0276,0.0275,0.0266,0.0244,0,0,0,0,0,-0.0294,-0.025,-0.0181,-0.0139,-0.0116,-0.0059,-0.003,-0.0001,0.0051,0.0072,0.0119,0.0169,0.0217,0.0248,0.0297,0.0348,0.0365,0.0368,0.0367,0.0366,0.037,0.04,0.0402,0.038,0.038,0.038,0,0,-0.0299,-0.0249,-0.0224,-0.0146,-0.0105,-0.0061,-0.0042,0.0004,0.0037,0.0079,0.0134,0.017,0.0229,0.0283,0.0309,0.0314,0.0379,0.0368,0.0367,0.0371,0.0401,0.0403,0.0405,0.0381,0.0381,0.0381,0,0,-0.0286,-0.0243,-0.0204,-0.0163,-0.0102,-0.0064,-0.0055,0.0013,0.0039,0.0095,0.0127,0.0167,0.025,0.0291,0.0322,0.035,0.0373,0.0365,0.0362,0.0391,0.0392,0.0394,0.0404,0.0407,0.0368,0.0368,0.0368,0,-0.03,-0.0231,-0.0186,-0.0142,-0.0108,-0.0069,-0.0029,0.0008,0.0082,0.0104,0.0108,0.0212,0.0255,0.0318,0.0325,0.0349,0.0362,0.0357,0.0389,0.0391,0.0393,0.0403,0.0407,0.0366,0.0367,0.0367,0.0367,0,-0.0252,-0.0205,-0.018,-0.011,-0.0074,-0.0032,0.0019,0.0051,0.0076,0.0113,0.0169,0.0222,0.0281,0.0298,0.0324,0.0366,0.0367,0.0378,0.0384,0.0393,0.0404,0.0408,0.0364,0.0365,0.0365,0.0366,0,0,-0.026,-0.0165,-0.0157,-0.0125,-0.0054,-0.0017,0.0026,0.0085,0.011,0.016,0.0198,0.0266,0.0278,0.0313,0.0344,0.0369,0.0387,0.0378,0.038,0.0378,0.0437,0.0427,0.0431,0.0402,0.0403,0.0404,0.0432,0,-0.0236,-0.0156,-0.0115,-0.0053,-0.0009,0.0029,0.0067,0.0114,0.0149,0.0191,0.023,0.0278,0.0289,0.0311,0.0337,0.0379,0.04,0.0378,0.0438,0.044,0.0423,0.0437,0.0427,0.0451,0.0436,0.0437,0.0438,0,-0.0198,-0.0149,-0.0083,-0.0018,0.0002,0.0036,0.0092,0.0132,0.0186,0.021,0.0249,0.0279,0.0326,0.0328,0.0394,0.0378,0.0405,0.0429,0.0431,0.0439,0.0439,0.0445,0.046,0.0463,0.0444,0.0444,0.0443,0,-0.0211,-0.0128,-0.0078,-0.0051,0.0026,0.0049,0.0082,0.0136,0.0168,0.0217,0.0238,0.0292,0.0322,0.0363,0.0406,0.0403,0.0468,0.0473,0.0489,0.0488,0.0501,0.05,0.0521,0.0518,0.0518,0.0518,0.0517,0,-0.0189,-0.015,-0.0082,-0.0051,-0.0006,0.0041,0.0084,0.012,0.0167,0.0206,0.0241,0.0277,0.0332,0.0374,0.0408,0.0458,0.0471,0.0491,0.05,0.0489,0.0486,0.0507,0.0507,0.0519,0.0518,0.0518,0.0518,0,-0.0195,-0.0148,-0.0091,-0.0022,-0.0004,0.0026,0.0084,0.0116,0.0152,0.0201,0.0215,0.0272,0.0324,0.0371,0.044,0.0463,0.0513,0.0523,0.0494,0.0499,0.0512,0.051,0.0548,0.0555,0.0547,0.0547,0.0547,0,-0.0184,-0.0153,-0.0081,-0.0053,-0.002,0.0025,0.0058,0.0105,0.0138,0.0201,0.0225,0.0279,0.0325,0.0406,0.0454,0.0506,0.0519,0.0528,0.0527,0.0514,0.0519,0.0517,0.052,0.0528,0.0528,0.0528,0.0527,0,-0.0169,-0.0148,-0.0102,-0.0048,-0.0009,0.0036,0.0081,0.0103,0.0158,0.0193,0.0246,0.0282,0.0352,0.0405,0.0463,0.0497,0.0522,0.0527,0.0534,0.0523,0.0504,0.0515,0.0493,0.0526,0.0527,0.0527,0.0527,0.0527,-0.0166,-0.0137,-0.0082,-0.0032,0.0008,0.005,0.0083,0.0123,0.0168,0.0229,0.0254,0.0307,0.0361,0.0441,0.0475,0.0517,0.0522,0.0532,0.0534,0.0536,0.0534,0.0497,0.0528,0.0528,0.0528,0.0528,0.0528,0,-0.0149,-0.0112,-0.0067,-0.0004,0.0036,0.0055,0.0107,0.0138,0.0185,0.0232,0.0277,0.0337,0.0389,0.0441,0.0495,0.0519,0.0532,0.0532,0.0531,0.0538,0.0526,0.0515,0.0521,0.0521,0.0521,0.0521,0.0521,0.0521,-0.0136,-0.0085,-0.0058,0.0013,0.005,0.0103,0.013,0.0169,0.0207,0.0273,0.0317,0.035,0.0399,0.0457,0.0505,0.0519,0.0538,0.0535,0.0552,0.0539,0.0539,0.054,0.053,0.0538,0.0538,0.0561,0.0561,0.0561]},{"header":{"parameterUnit":"m.s-1","parameterCategory":1,"la1":30.2991,"la2":30.254,"lo1":-89.0895,"lo2":-89.0444,"dy":0.0017,"dx":0.0017,"nx":28,"ny":28,"refTime":"2024-04-20T21:00:00:Z","depth":0,"parameterNumber":3,"parameterNumberName":"V-component_of_WINDS"},"data":[0,0,0,0,0,0,0,0,0,0,0,0,0,0,0,0,0,0,0,0,0,0,0,0,0,0,0,0,0,0,0,0,0,0,0,0,0,0,0,0,0,0,0,0,0,0,0,0,0,0,0,0,0,0,0,0,0,0,3.3467,3.3467,0,3.3451,3.3451,3.345,3.3401,3.3399,3.3398,3.3397,3.3382,3.3382,3.3383,0,0,0,0,0,0,0,0,0,0,0,0,0,3.3455,3.3456,3.3467,3.3467,3.3466,3.3451,3.3451,3.345,3.3401,3.3399,3.3398,3.3397,3.3382,3.3382,3.3383,0,0,0,0,0,0,0,0,0,0,0,0,0,3.3452,3.3456,3.3467,3.344,3.3437,3.3451,3.3451,3.345,3.3401,3.3399,3.3398,3.3396,3.3381,3.3382,3.3383,3.3422,0,0,3.3386,3.3386,0,0,0,0,0,0,0,0,3.3452,3.3452,3.3444,3.3442,3.3439,3.3426,3.3441,3.3441,3.3401,3.3415,3.3397,3.3395,3.3398,3.3397,3.3398,3.3421,3.3421,3.3386,3.3387,3.3387,3.3387,0,0,0,0,0,0,0,3.3453,3.3453,3.346,3.3444,3.3441,3.3429,3.3426,3.3441,3.3416,3.3413,3.341,3.3409,3.3396,3.3397,3.3397,3.3421,3.3386,3.3387,3.3387,3.3388,3.3477,3.3479,0,0,0,0,0,0,3.3456,3.3453,3.3461,3.346,3.3441,3.343,3.3428,3.3432,3.3416,3.3411,3.341,3.3406,3.3396,3.3396,3.3397,3.3443,3.3387,3.3388,3.3388,3.3475,3.3477,3.3479,0,0,0,0,0,0,3.3456,3.3458,3.3462,3.3456,3.3455,3.3432,3.3437,3.3432,3.3433,3.3413,3.3408,3.3416,3.3395,3.3395,3.3417,3.3441,3.3388,3.3389,3.3473,3.3476,3.3478,3.3534,0,0,0,0,0,0,3.3456,3.3458,3.3472,3.3456,3.3456,3.3482,3.3439,3.3433,3.3435,3.343,3.3417,3.3413,3.3394,3.3415,3.3417,3.3442,3.339,3.3471,3.3474,3.3477,3.353,3.3539,3.3546,0,0,0,0,0,3.3456,3.3488,3.3473,3.3474,3.3473,3.3483,3.3483,3.346,3.3437,3.3452,3.3439,3.3414,3.3438,3.3418,3.342,3.3445,3.3469,3.3473,3.3477,3.3527,3.3537,3.3546,0,0,0,0,0,0,3.3507,3.3486,3.3469,3.3497,3.3492,3.3475,3.3492,3.3471,3.3473,3.3468,3.3439,3.3437,3.3463,3.3455,3.3434,3.3482,3.3449,3.3454,3.3486,3.3496,3.3504,3.3506,3.3391,0,0,0,0,0,3.3522,3.3532,3.3512,3.3539,3.3537,3.3515,3.3519,3.3501,3.3496,3.3494,3.3482,3.3478,3.3485,3.349,3.3494,3.3528,3.3526,3.3547,3.3554,3.3561,3.3566,3.3585,3.3594,3.3493,3.3493,3.3493,0,0,3.3552,3.3542,3.3549,3.3549,3.3543,3.3555,3.3514,3.3527,3.3536,3.3496,3.3515,3.3507,3.35,3.3529,3.354,3.3523,3.3593,3.3566,3.3571,3.3573,3.359,3.36,3.3608,3.3495,3.3495,3.3494,0,0,3.3614,3.3606,3.3628,3.3624,3.3616,3.3601,3.3606,3.3592,3.3585,3.3605,3.3575,3.3585,3.3597,3.3594,3.3594,3.3655,3.3633,3.3657,3.3699,3.3718,3.3726,3.3733,3.3757,3.3765,3.3662,3.3662,3.3662,0,3.3653,3.3668,3.3642,3.3658,3.3659,3.3623,3.3646,3.3643,3.3637,3.3639,3.362,3.3635,3.3628,3.3656,3.3671,3.3672,3.3678,3.3659,3.3727,3.3733,3.374,3.3762,3.3771,3.3665,3.3665,3.3665,3.3664,0,3.3717,3.3729,3.3747,3.3743,3.3746,3.3766,3.3743,3.375,3.3732,3.372,3.3741,3.3731,3.3734,3.3739,3.3722,3.3765,3.3755,3.3732,3.3698,3.3753,3.3774,3.3782,3.367,3.3669,3.3668,3.3667,0,0,3.3811,3.3793,3.38,3.3799,3.3788,3.3796,3.3814,3.3817,3.3824,3.3821,3.3837,3.3848,3.3827,3.3827,3.3809,3.3826,3.3877,3.38,3.38,3.3817,3.3926,3.3945,3.3956,3.3862,3.3863,3.3864,3.3928,0,3.387,3.39,3.3878,3.3912,3.3923,3.3889,3.3905,3.3901,3.389,3.3898,3.3885,3.3895,3.3865,3.3865,3.388,3.3868,3.3899,3.3863,3.3877,3.3878,3.3882,3.3966,3.3986,3.4046,3.3935,3.3937,3.3937,0,3.3944,3.3945,3.3981,3.3969,3.3973,3.3987,3.3989,3.3997,3.3992,3.3982,3.3983,3.3961,3.3979,3.3945,3.397,3.3946,3.395,3.3946,3.3947,3.3949,3.3912,3.3972,3.4064,3.4074,3.3949,3.3949,3.3948,0,3.4011,3.4022,3.4045,3.4044,3.403,3.4042,3.4036,3.4029,3.4033,3.4035,3.4037,3.4041,3.4043,3.4047,3.4027,3.4004,3.4055,3.4019,3.4049,3.405,3.4063,3.4062,3.4159,3.4063,3.4063,3.4062,3.4062,0,3.4081,3.4105,3.4075,3.4089,3.4115,3.4089,3.4115,3.4106,3.4101,3.4113,3.4084,3.4096,3.4068,3.4078,3.4063,3.4087,3.4087,3.4082,3.4078,3.4085,3.4086,3.4089,3.4085,3.4065,3.4064,3.4064,3.4063,0,3.4161,3.4142,3.4165,3.415,3.4147,3.4167,3.4155,3.4168,3.4155,3.4171,3.4174,3.4153,3.4164,3.4144,3.4151,3.4141,3.4176,3.4164,3.4178,3.4175,3.4207,3.4205,3.431,3.4323,3.4217,3.4218,3.4219,0,3.4208,3.4226,3.4213,3.4219,3.4216,3.4226,3.423,3.4205,3.4211,3.4207,3.4221,3.4228,3.4234,3.4252,3.4238,3.4244,3.4234,3.427,3.4235,3.4243,3.4237,3.4237,3.4239,3.4278,3.4279,3.428,3.4281,0,3.4294,3.4284,3.4291,3.4295,3.43,3.4302,3.4301,3.4308,3.4282,3.429,3.43,3.4304,3.4312,3.4321,3.4324,3.4319,3.4297,3.4292,3.43,3.4309,3.4317,3.4316,3.42,3.4291,3.429,3.4289,3.4288,3.4288,3.436,3.4375,3.4369,3.4378,3.4375,3.4375,3.4387,3.4376,3.4384,3.4389,3.4373,3.4388,3.4383,3.4385,3.4382,3.4394,3.4378,3.4388,3.4391,3.4395,3.4401,3.4314,3.4394,3.4394,3.4393,3.4393,3.4393,0,3.4447,3.4441,3.4449,3.445,3.4457,3.4435,3.4433,3.4441,3.4454,3.4451,3.4457,3.447,3.4478,3.4466,3.4472,3.4484,3.4474,3.4487,3.4487,3.4487,3.4414,3.4408,3.4495,3.4495,3.4495,3.4495,3.4495,3.4495,3.4493,3.4517,3.4506,3.4529,3.4523,3.4537,3.4538,3.4539,3.4537,3.4552,3.4559,3.4551,3.4544,3.455,3.4558,3.4554,3.4559,3.4575,3.4568,3.4501,3.4491,3.4482,3.4476,3.4576,3.4576,3.464,3.4641,3.4641]}]]